Regional Weather Roundup
Issued by NWS Mt. Holly, NJ

Home | Current Version | Previous Version | Text Only | Print | Product List | Glossary On
Versions: 1 2 3 4 5 6 7 8 9 10 11 12 13 14 15 16 17 18 19 20 21 22 23 24 25 26 27 28 29 30 31 32 33 34 35 36 37 38 39 40 41 42 43 44 45 46 47 48 49 50
000
ASUS41 KPHI 240612
RWRPHI

REGIONAL WEATHER ROUNDUP
NATIONAL WEATHER SERVICE MOUNT HOLLY NJ
200 AM EDT TUE MAY 24 2016

NOTE:  "FAIR" INDICATES FEW OR NO CLOUDS BELOW 12,000 FEET WITH NO
SIGNIFICANT WEATHER AND/OR OBSTRUCTIONS TO VISIBILITY.

 * = STATION DOES NOT REPORT PRECIPITATION (E.G. RAIN, SNOW, ETC.)
        OR FOG.

NJZ015>026-240700-
SOUTHERN NEW JERSEY

CITY           SKY/WX    TMP DP  RH WIND       PRES   REMARKS
POMONA         LGT RAIN  56  54  93 NW3       29.91F
6HR MIN TEMP:  55; 6HR MAX TEMP:  64; 6HR PCP:  0.15;

WILDWOOD*      CLOUDY   N/A N/A N/A W3        29.93S
MILLVILLE      CLOUDY    56  54  93 W7        29.92F
WRIGHTSTOWN    LGT RAIN  55  54  94 S5        29.87F
MOUNT HOLLY    CLOUDY    56  54  93 CALM      29.90F
TRENTON        CLOUDY    57  54  89 S7        29.88F
6HR MIN TEMP:  57; 6HR MAX TEMP:  64; 6HR PCP:  0.05;


$$
NJZ001>014-240700-
NORTHERN NEW JERSEY

CITY           SKY/WX    TMP DP  RH WIND       PRES   REMARKS
SUSSEX         CLOUDY    60  54  80 CALM      29.88F
ANDOVER*         N/A     60  54  80 SW5       29.89S
MORRISTOWN     CLOUDY    57  54  88 CALM      29.90F
NEWARK         LGT RAIN  61  53  75 CALM      29.90F
TETERBORO      LGT RAIN  62  50  64 CALM      29.90S
CALDWELL       LGT RAIN  58  54  86 E5        29.91S
SOMERVILLE     CLOUDY    57  55  93 CALM      29.87F
ALLAIRE*       LGT RAIN  57  52  83 W3        29.91F
TOMS RIVER*    CLOUDY    57  48  72 W7        29.90F

$$
PAZ043-044-047-054-055-060>062-066>071-240700-
EASTERN PENNSYLVANIA

CITY           SKY/WX    TMP DP  RH WIND       PRES   REMARKS
PHILADELPHIA   CLOUDY    58  52  80 SE6       29.92F
6HR MIN TEMP:  58; 6HR MAX TEMP:  62;

NORTH PHILA    LGT RAIN  58  55  90 SW14      29.90F FOG
BLUE BELL*     CLOUDY    55  54  94 E7        29.93R
DOYLESTOWN     CLOUDY    57  55  93 VRB6      29.87F
QUAKERTOWN*    CLOUDY    57  55  94 CALM      29.90F
PERKASIE*      CLOUDY    57  55  94 SW3       29.90F
POTTSTOWN      PTCLDY    57  55  93 S5        29.91F
LANCASTER      CLOUDY    57  54  89 W8        29.90F
COATESVILLE      N/A    N/A N/A N/A MISG        N/A
READING        PTCLDY    59  53  80 CALM      29.88F
6HR MIN TEMP:  57; 6HR MAX TEMP:  67;

ALLENTOWN      CLOUDY    60  54  80 SW8       29.88F
6HR MIN TEMP:  56; 6HR MAX TEMP:  67;

MOUNT POCONO   PTCLDY    53  45  74 NW7       29.90F
6HR MIN TEMP:  47; 6HR MAX TEMP:  63;

HAZLETON       PTCLDY    57  46  67 CALM      29.95S
LEHIGHTON      FAIR      54  54 100 SW3       29.90F
WILKES BARRE   CLOUDY    65  43  44 N5        29.90F

$$
DEZALL-MDZ008-012-015-019-020-240700-
DELAWARE AND EASTERN MARYLAND

CITY           SKY/WX    TMP DP  RH WIND       PRES   REMARKS
WILMINGTON     CLOUDY    57  55  93 SE5       29.92F
6HR MIN TEMP:  57; 6HR MAX TEMP:  59;

DOVER          CLOUDY    57  57 100 S6        29.92F
GEORGETOWN     CLOUDY    58  55  90 CALM      29.94F
6HR MIN TEMP:  57; 6HR MAX TEMP:  62; 6HR PCP:  0.01;

EASTON         FOG       57  57 100 CALM      29.97F VSB 1
PATUXENT       PTCLDY    56  53  90 SW6       29.94F
OCEAN CITY     CLOUDY    56  51  84 W3        29.93S
WALLOPS ISLAND CLOUDY    58  54  86 NW5       29.94S
SALISBURY      MOCLDY    56  54  93 W3        29.93F

$$
PAZ001-021-NYZ056-072-MDZ011-DCZ001-240700-
OTHER NEARBY LOCATIONS

CITY           SKY/WX    TMP DP  RH WIND       PRES   REMARKS
HARRISBURG     MOCLDY    59  55  87 NW12      29.91F
STATE COLLEGE  CLEAR     55  51  85 CALM      29.97F
WILLIAMSPORT   CLEAR     56  49  77 W3        29.93S
BINGHAMTON     MOCLDY    57  42  57 N9        29.94F
NEW YORK CITY  CLOUDY    63  48  58 CALM      29.93S
BALTIMORE      MOCLDY    59  55  87 W9        29.92F
WASHINGTON DC  LGT RAIN  62  56  80 CALM      29.94F

$$



USA.gov is the U.S. government's official web portal to all federal, state and local government web resources and services.